When you browse on this site, cookies collect data to enhance your experience and personalize the content and advertising you see.
Visit our Privacy Policy to learn more. By continuing to use the site, you agree to this use of cookies and data.
  • In Österreich
  • Länderverzeichnis
  • Für 7 Tage
  • Wassertemperatur
  • Wetterkarte
  • News
  • Widgets
  • user-avatar
    Anmelden

    Stündliche Wetter Lethem

    Heute, 21 Januar, Dienstag

    Zeit Temperatur Niederschläge Wind Luftdruck Luftfeuchtigkeit
    00:00 +28°C° 0 mm 4 m/S 750 mmHg 68%
    01:00 +28°C° 0 mm 4 m/S 750 mmHg 72%
    02:00 +27°C° 0 mm 5 m/S 750 mmHg 77%
    03:00 +27°C° 0 mm 5 m/S 750 mmHg 78%
    04:00 +26°C° 0 mm 5 m/S 750 mmHg 79%
    05:00 +26°C° 0 mm 5 m/S 750 mmHg 81%
    06:00 +27°C° 0 mm 6 m/S 750 mmHg 77%
    07:00 +27°C° 0 mm 6 m/S 751 mmHg 74%
    08:00 +28°C° 0 mm 6 m/S 752 mmHg 70%
    09:00 +30°C° 0 mm 6 m/S 751 mmHg 62%
    10:00 +33°C° 0 mm 5 m/S 751 mmHg 53%
    11:00 +35°C° 0 mm 5 m/S 751 mmHg 44%
    12:00 +37°C° 0 mm 5 m/S 750 mmHg 40%
    13:00 +39°C° 0 mm 5 m/S 749 mmHg 36%
    14:00 +40°C° 0 mm 5 m/S 748 mmHg 31%
    15:00 +39°C° 0 mm 5 m/S 747 mmHg 33%
    16:00 +39°C° 0 mm 5 m/S 747 mmHg 34%
    17:00 +37°C° 0 mm 5 m/S 747 mmHg 35%
    18:00 +36°C° 0 mm 5 m/S 747 mmHg 40%
    19:00 +34°C° 0 mm 5 m/S 747 mmHg 46%
    20:00 +32°C° 0 mm 5 m/S 748 mmHg 52%
    21:00 +30°C° 0 mm 4 m/S 748 mmHg 55%
    22:00 +30°C° 0 mm 4 m/S 749 mmHg 58%
    23:00 +29°C° 0 mm 4 m/S 750 mmHg 61%

    Morgen, 22 Januar, Mittwoch

    Zeit Temperatur Niederschläge Wind Luftdruck Luftfeuchtigkeit
    00:00 +28°C° 0 mm 5 m/S 749 mmHg 65%
    01:00 +27°C° 0 mm 5 m/S 749 mmHg 69%
    02:00 +27°C° 0 mm 5 m/S 749 mmHg 74%
    03:00 +26°C° 0 mm 5 m/S 749 mmHg 76%
    04:00 +26°C° 0 mm 5 m/S 749 mmHg 78%
    05:00 +25°C° 0 mm 5 m/S 749 mmHg 80%
    06:00 +26°C° 0 mm 5 m/S 750 mmHg 77%
    07:00 +27°C° 0 mm 5 m/S 750 mmHg 74%
    08:00 +27°C° 0 mm 5 m/S 750 mmHg 71%
    09:00 +29°C° 0 mm 5 m/S 750 mmHg 62%
    10:00 +32°C° 0 mm 5 m/S 750 mmHg 54%
    11:00 +35°C° 0 mm 5 m/S 750 mmHg 46%
    12:00 +36°C° 0 mm 5 m/S 749 mmHg 40%
    13:00 +37°C° 0 mm 5 m/S 748 mmHg 35%
    14:00 +40°C° 0 mm 5 m/S 747 mmHg 30%
    15:00 +38°C° 0 mm 4 m/S 747 mmHg 30%
    16:00 +38°C° 0 mm 4 m/S 746 mmHg 31%
    17:00 +38°C° 0 mm 4 m/S 746 mmHg 31%
    18:00 +36°C° 0 mm 4 m/S 746 mmHg 36%
    19:00 +34°C° 0 mm 4 m/S 747 mmHg 41%
    20:00 +32°C° 0 mm 4 m/S 747 mmHg 47%
    21:00 +32°C° 0 mm 4 m/S 748 mmHg 50%
    22:00 +30°C° 0 mm 4 m/S 748 mmHg 54%
    23:00 +29°C° 0 mm 4 m/S 749 mmHg 58%

    übermorgen, 23 Januar, Donnerstag

    Zeit Temperatur Niederschläge Wind Luftdruck Luftfeuchtigkeit
    00:00 +28°C° 0 mm 4 m/S 748 mmHg 62%
    01:00 +28°C° 0 mm 4 m/S 748 mmHg 66%
    02:00 +27°C° 0 mm 5 m/S 748 mmHg 69%
    03:00 +27°C° 0 mm 5 m/S 748 mmHg 71%
    04:00 +26°C° 0 mm 5 m/S 748 mmHg 73%
    05:00 +24°C° 0 mm 6 m/S 748 mmHg 75%
    06:00 +26°C° 0 mm 6 m/S 749 mmHg 73%
    07:00 +27°C° 0 mm 6 m/S 749 mmHg 72%
    08:00 +27°C° 0 mm 6 m/S 750 mmHg 70%
    09:00 +30°C° 0 mm 6 m/S 750 mmHg 62%
    10:00 +33°C° 0 mm 6 m/S 750 mmHg 53%
    11:00 +35°C° 0 mm 5 m/S 750 mmHg 44%
    12:00 +36°C° 0 mm 5 m/S 749 mmHg 41%
    13:00 +39°C° 0 mm 5 m/S 748 mmHg 38%
    14:00 +40°C° 0 mm 4 m/S 747 mmHg 34%
    15:00 +38°C° 0 mm 4 m/S 747 mmHg 35%
    16:00 +38°C° 0 mm 4 m/S 746 mmHg 36%
    17:00 +38°C° 0 mm 4 m/S 746 mmHg 36%
    18:00 +36°C° 0 mm 4 m/S 746 mmHg 41%
    19:00 +34°C° 0 mm 5 m/S 747 mmHg 46%
    20:00 +32°C° 0 mm 5 m/S 747 mmHg 51%
    21:00 +32°C° 0 mm 4 m/S 748 mmHg 54%
    22:00 +30°C° 0 mm 4 m/S 748 mmHg 58%
    23:00 +29°C° 0 mm 4 m/S 749 mmHg 61%

    24 Januar, Freitag

    Zeit Temperatur Niederschläge Wind Luftdruck Luftfeuchtigkeit
    00:00 +29°C° 0 mm 4 m/S 749 mmHg 63%
    01:00 +28°C° 0 mm 5 m/S 748 mmHg 65%
    02:00 +28°C° 0 mm 5 m/S 748 mmHg 67%
    03:00 +27°C° 0 mm 5 m/S 748 mmHg 69%
    04:00 +26°C° 0 mm 5 m/S 749 mmHg 71%
    05:00 +26°C° 0 mm 5 m/S 749 mmHg 73%
    06:00 +26°C° 0 mm 6 m/S 749 mmHg 70%
    07:00 +27°C° 0 mm 6 m/S 750 mmHg 67%
    08:00 +28°C° 0 mm 6 m/S 751 mmHg 64%
    09:00 +30°C° 0 mm 6 m/S 751 mmHg 56%
    10:00 +34°C° 0 mm 6 m/S 751 mmHg 48%
    11:00 +36°C° 0 mm 6 m/S 751 mmHg 39%
    12:00 +37°C° 0 mm 5 m/S 750 mmHg 36%
    13:00 +39°C° 0 mm 5 m/S 749 mmHg 33%
    14:00 +41°C° 0 mm 4 m/S 748 mmHg 30%
    15:00 +40°C° 0 mm 4 m/S 748 mmHg 31%
    16:00 +40°C° 0 mm 4 m/S 747 mmHg 32%
    17:00 +38°C° 0 mm 4 m/S 746 mmHg 33%
    18:00 +37°C° 0 mm 4 m/S 747 mmHg 37%
    19:00 +35°C° 0 mm 4 m/S 748 mmHg 41%
    20:00 +33°C° 0 mm 4 m/S 748 mmHg 45%
    21:00 +32°C° 0 mm 4 m/S 749 mmHg 48%
    22:00 +30°C° 0 mm 4 m/S 749 mmHg 52%
    23:00 +30°C° 0 mm 4 m/S 750 mmHg 55%

    25 Januar, Samstag

    Zeit Temperatur Niederschläge Wind Luftdruck Luftfeuchtigkeit
    00:00 +29°C° 0 mm 4 m/S 750 mmHg 59%
    01:00 +28°C° 0 mm 5 m/S 750 mmHg 62%
    02:00 +28°C° 0 mm 6 m/S 749 mmHg 65%
    03:00 +27°C° 0 mm 6 m/S 750 mmHg 67%
    04:00 +26°C° 0 mm 6 m/S 750 mmHg 69%
    05:00 +26°C° 0 mm 6 m/S 750 mmHg 70%
    06:00 +27°C° 0 mm 6 m/S 750 mmHg 68%
    07:00 +27°C° 0 mm 6 m/S 751 mmHg 65%
    08:00 +28°C° 0 mm 6 m/S 752 mmHg 63%
    09:00 +30°C° 0 mm 6 m/S 752 mmHg 56%
    10:00 +33°C° 0 mm 6 m/S 751 mmHg 50%
    11:00 +36°C° 0 mm 6 m/S 751 mmHg 44%
    12:00 +37°C° 0 mm 5 m/S 751 mmHg 41%
    13:00 +39°C° 0 mm 5 m/S 750 mmHg 38%
    14:00 +40°C° 0 mm 5 m/S 749 mmHg 36%
    15:00 +39°C° 0 mm 5 m/S 748 mmHg 37%
    16:00 +37°C° 0 mm 5 m/S 748 mmHg 38%
    17:00 +37°C° 0 mm 5 m/S 747 mmHg 40%
    18:00 +35°C° 0 mm 5 m/S 748 mmHg 46%
    19:00 +33°C° 0 mm 5 m/S 749 mmHg 52%
    20:00 +30°C° 0 mm 5 m/S 749 mmHg 59%
    21:00 +30°C° 0 mm 5 m/S 750 mmHg 62%
    22:00 +29°C° 0 mm 5 m/S 750 mmHg 64%
    23:00 +28°C° 0 mm 4 m/S 751 mmHg 67%

    26 Januar, Sonntag

    Zeit Temperatur Niederschläge Wind Luftdruck Luftfeuchtigkeit
    00:00 +28°C° 0 mm 5 m/S 750 mmHg 70%
    01:00 +28°C° 0 mm 5 m/S 750 mmHg 73%
    02:00 +27°C° 0 mm 6 m/S 750 mmHg 75%
    03:00 +27°C° 0 mm 6 m/S 750 mmHg 77%
    04:00 +26°C° 0 mm 6 m/S 750 mmHg 79%
    05:00 +26°C° 0 mm 5 m/S 750 mmHg 81%
    06:00 +27°C° 0 mm 5 m/S 750 mmHg 78%
    07:00 +28°C° 0 mm 6 m/S 751 mmHg 74%
    08:00 +29°C° 0 mm 6 m/S 752 mmHg 71%
    09:00 +32°C° 0 mm 6 m/S 752 mmHg 63%
    10:00 +34°C° 0 mm 5 m/S 752 mmHg 55%
    11:00 +36°C° 0 mm 5 m/S 751 mmHg 47%
    12:00 +37°C° 0 mm 5 m/S 750 mmHg 43%
    13:00 +39°C° 0 mm 5 m/S 749 mmHg 39%
    14:00 +40°C° 0 mm 4 m/S 748 mmHg 34%
    15:00 +40°C° 0 mm 4 m/S 748 mmHg 35%
    16:00 +38°C° 0 mm 4 m/S 747 mmHg 36%
    17:00 +38°C° 0 mm 4 m/S 747 mmHg 36%
    18:00 +36°C° 0 mm 4 m/S 748 mmHg 41%
    19:00 +35°C° 0 mm 4 m/S 748 mmHg 46%
    20:00 +33°C° 0 mm 4 m/S 749 mmHg 51%
    21:00 +32°C° 0 mm 4 m/S 749 mmHg 56%
    22:00 +30°C° 0 mm 5 m/S 750 mmHg 60%
    23:00 +30°C° 0 mm 5 m/S 750 mmHg 64%
    Mehr zeigen